Time,TemperatureF,DewpointF,PressureIn,WindDirection,WindDirectionDegrees,WindSpeedMPH,WindSpeedGustMPH,Humidity,HourlyPrecipIn,Conditions,Clouds,dailyrainin,SolarRadiationWatts/m^2,SoftwareType,DateUTC
2013-06-17 00:02:00,62.0,61.0,-100.00,SSW,192,2.0,4.0,98,0.00,,,0.10,0.000000,,2013-06-17 04:02:00,
2013-06-17 00:34:00,63.0,62.0,-100.00,SW,231,1.0,2.0,95,0.00,,,0.10,0.000000,,2013-06-17 04:34:00,
2013-06-17 00:43:00,63.0,62.0,-100.00,SW,231,1.0,2.0,95,0.00,,,0.10,0.000000,,2013-06-17 04:43:00,
2013-06-17 00:53:00,63.0,62.0,-100.00,SW,231,1.0,2.0,95,0.00,,,0.10,0.000000,,2013-06-17 04:53:00,
2013-06-17 01:02:00,63.0,62.0,-100.00,SW,231,1.0,2.0,95,0.00,,,0.10,0.000000,,2013-06-17 05:02:00,
2013-06-17 01:33:00,64.0,63.0,-100.00,SSW,203,3.0,6.0,98,0.00,,,0.10,0.000000,,2013-06-17 05:33:00,
2013-06-17 01:44:00,64.0,63.0,-100.00,SSW,203,3.0,6.0,98,0.00,,,0.10,0.000000,,2013-06-17 05:44:00,
2013-06-17 01:53:00,64.0,63.0,-100.00,SSW,203,3.0,6.0,98,0.00,,,0.10,0.000000,,2013-06-17 05:53:00,
2013-06-17 02:02:00,64.0,63.0,-100.00,SSW,203,3.0,6.0,98,0.00,,,0.10,0.000000,,2013-06-17 06:02:00,
2013-06-17 02:33:00,65.0,64.0,-100.00,West,273,3.0,5.0,96,0.00,,,0.10,0.000000,,2013-06-17 06:33:00,
2013-06-17 02:43:00,65.0,64.0,-100.00,West,273,3.0,5.0,96,0.00,,,0.10,0.000000,,2013-06-17 06:43:00,
2013-06-17 02:53:00,65.0,64.0,-100.00,West,273,3.0,5.0,96,0.00,,,0.10,0.000000,,2013-06-17 06:53:00,
2013-06-17 03:02:00,65.0,64.0,-100.00,West,273,3.0,5.0,96,0.00,,,0.10,0.000000,,2013-06-17 07:02:00,
2013-06-17 03:33:00,63.0,62.0,-100.00,WSW,248,2.0,4.0,97,0.01,,,0.11,0.000000,,2013-06-17 07:33:00,
2013-06-17 03:43:00,63.0,62.0,-100.00,WSW,248,2.0,4.0,97,0.01,,,0.11,0.000000,,2013-06-17 07:43:00,
2013-06-17 03:53:00,63.0,62.0,-100.00,WSW,248,2.0,4.0,97,0.01,,,0.11,0.000000,,2013-06-17 07:53:00,
2013-06-17 04:02:00,63.0,62.0,-100.00,WSW,248,2.0,4.0,97,0.01,,,0.11,0.000000,,2013-06-17 08:02:00,
2013-06-17 04:34:00,64.0,63.0,-100.00,WSW,250,4.0,6.0,96,0.00,,,0.11,0.000000,,2013-06-17 08:34:00,
2013-06-17 04:43:00,64.0,63.0,-100.00,WSW,250,4.0,6.0,96,0.00,,,0.11,0.000000,,2013-06-17 08:43:00,
2013-06-17 04:53:00,64.0,63.0,-100.00,WSW,250,4.0,6.0,96,0.00,,,0.11,0.000000,,2013-06-17 08:53:00,
2013-06-17 05:02:00,64.0,63.0,-100.00,WSW,250,4.0,6.0,96,0.00,,,0.11,0.000000,,2013-06-17 09:02:00,
2013-06-17 05:34:00,63.0,62.0,-100.00,WSW,253,1.0,2.0,97,0.00,,,0.11,0.000000,,2013-06-17 09:34:00,
2013-06-17 05:44:00,63.0,62.0,-100.00,WSW,253,1.0,2.0,97,0.00,,,0.11,0.000000,,2013-06-17 09:44:00,
2013-06-17 05:53:00,63.0,62.0,-100.00,WSW,253,1.0,2.0,97,0.00,,,0.11,0.000000,,2013-06-17 09:53:00,
2013-06-17 06:02:00,63.0,62.0,-100.00,WSW,253,1.0,2.0,97,0.00,,,0.11,0.000000,,2013-06-17 10:02:00,
2013-06-17 06:33:00,62.0,61.0,-100.00,West,265,1.0,2.0,98,0.00,,,0.11,3.000000,,2013-06-17 10:33:00,
2013-06-17 06:43:00,62.0,61.0,-100.00,West,265,1.0,2.0,98,0.00,,,0.11,3.000000,,2013-06-17 10:43:00,
2013-06-17 06:54:00,62.0,61.0,-100.00,West,265,1.0,2.0,98,0.00,,,0.11,3.000000,,2013-06-17 10:54:00,
2013-06-17 07:02:00,62.0,61.0,-100.00,West,265,1.0,2.0,98,0.00,,,0.11,3.000000,,2013-06-17 11:02:00,
2013-06-17 07:33:00,64.0,62.0,-100.00,SW,234,2.0,3.0,92,0.00,,,0.07,86.000000,,2013-06-17 11:33:00,
2013-06-17 07:43:00,64.0,62.0,-100.00,SW,234,2.0,3.0,92,0.00,,,0.07,86.000000,,2013-06-17 11:43:00,
2013-06-17 07:53:00,64.0,62.0,-100.00,SW,234,2.0,3.0,92,0.00,,,0.07,86.000000,,2013-06-17 11:53:00,
2013-06-17 08:02:00,64.0,62.0,-100.00,SW,234,2.0,3.0,92,0.00,,,0.07,86.000000,,2013-06-17 12:02:00,
2013-06-17 08:33:00,67.0,61.0,-100.00,WSW,246,3.0,7.0,82,0.00,,,0.01,301.000000,,2013-06-17 12:33:00,
2013-06-17 08:43:00,67.0,61.0,-100.00,WSW,246,3.0,7.0,82,0.00,,,0.01,301.000000,,2013-06-17 12:43:00,
2013-06-17 08:53:00,67.0,61.0,-100.00,WSW,246,3.0,7.0,82,0.00,,,0.01,301.000000,,2013-06-17 12:53:00,
2013-06-17 09:02:00,67.0,61.0,-100.00,WSW,246,3.0,7.0,82,0.00,,,0.01,301.000000,,2013-06-17 13:02:00,
2013-06-17 09:33:00,70.0,61.0,-100.00,WNW,292,4.0,6.0,73,0.00,,,0.01,510.000000,,2013-06-17 13:33:00,
2013-06-17 09:43:00,70.0,61.0,-100.00,WNW,292,4.0,6.0,73,0.00,,,0.01,510.000000,,2013-06-17 13:43:00,
2013-06-17 09:53:00,70.0,61.0,-100.00,WNW,292,4.0,6.0,73,0.00,,,0.01,510.000000,,2013-06-17 13:53:00,
2013-06-17 10:02:00,70.0,61.0,-100.00,WNW,292,4.0,6.0,73,0.00,,,0.01,510.000000,,2013-06-17 14:02:00,
2013-06-17 10:44:00,73.0,61.0,-100.00,WSW,258,4.0,9.0,65,0.00,,,0.01,713.000000,,2013-06-17 14:44:00,
2013-06-17 10:54:00,73.0,61.0,-100.00,WSW,258,4.0,9.0,65,0.00,,,0.01,713.000000,,2013-06-17 14:54:00,
2013-06-17 11:02:00,73.0,61.0,-100.00,WSW,258,4.0,9.0,65,0.00,,,0.01,713.000000,,2013-06-17 15:02:00,
2013-06-17 11:33:00,75.0,60.0,-100.00,West,269,5.0,9.0,60,0.00,,,0.01,847.000000,,2013-06-17 15:33:00,
2013-06-17 11:43:00,75.0,60.0,-100.00,West,269,5.0,9.0,60,0.00,,,0.01,847.000000,,2013-06-17 15:43:00,
2013-06-17 11:53:00,75.0,60.0,-100.00,West,269,5.0,9.0,60,0.00,,,0.01,847.000000,,2013-06-17 15:53:00,
2013-06-17 12:02:00,75.0,60.0,-100.00,West,269,5.0,9.0,60,0.00,,,0.01,847.000000,,2013-06-17 16:02:00,
2013-06-17 12:33:00,77.0,57.0,-100.00,West,274,5.0,6.0,51,0.00,,,0.01,1019.000000,,2013-06-17 16:33:00,
2013-06-17 12:43:00,77.0,57.0,-100.00,West,274,5.0,6.0,51,0.00,,,0.01,1019.000000,,2013-06-17 16:43:00,
2013-06-17 12:54:00,77.0,57.0,-100.00,West,274,5.0,6.0,51,0.00,,,0.01,1019.000000,,2013-06-17 16:54:00,
2013-06-17 13:02:00,77.0,57.0,-100.00,West,274,5.0,6.0,51,0.00,,,0.01,1019.000000,,2013-06-17 17:02:00,
2013-06-17 13:33:00,78.0,58.0,-100.00,WNW,282,4.0,12.0,50,0.00,,,0.01,989.000000,,2013-06-17 17:33:00,
2013-06-17 13:43:00,78.0,58.0,-100.00,WNW,282,4.0,12.0,50,0.00,,,0.01,989.000000,,2013-06-17 17:43:00,
2013-06-17 13:52:00,78.0,58.0,-100.00,WNW,282,4.0,12.0,50,0.00,,,0.01,989.000000,,2013-06-17 17:52:00,
2013-06-17 14:02:00,78.0,58.0,-100.00,WNW,282,4.0,12.0,50,0.00,,,0.01,989.000000,,2013-06-17 18:02:00,
2013-06-17 14:33:00,81.0,56.0,-100.00,West,266,5.0,15.0,43,0.00,,,0.01,963.000000,,2013-06-17 18:33:00,
2013-06-17 14:43:00,81.0,56.0,-100.00,West,266,5.0,15.0,43,0.00,,,0.01,963.000000,,2013-06-17 18:43:00,
2013-06-17 14:53:00,81.0,56.0,-100.00,West,266,5.0,15.0,43,0.00,,,0.01,963.000000,,2013-06-17 18:53:00,
2013-06-17 15:02:00,81.0,56.0,-100.00,West,266,5.0,15.0,43,0.00,,,0.01,963.000000,,2013-06-17 19:02:00,
2013-06-17 15:33:00,65.0,56.0,-100.00,SW,220,6.0,8.0,73,0.05,,,0.06,269.000000,,2013-06-17 19:33:00,
2013-06-17 16:34:00,76.0,62.0,-100.00,West,277,2.0,5.0,61,-99.99,,,0.07,776.000000,,2013-06-17 20:34:00,
2013-06-17 16:43:00,76.0,62.0,-100.00,West,277,2.0,5.0,61,-99.99,,,0.07,776.000000,,2013-06-17 20:43:00,
2013-06-17 16:52:00,76.0,62.0,-100.00,West,277,2.0,5.0,61,-99.99,,,0.07,776.000000,,2013-06-17 20:52:00,
2013-06-17 18:54:00,76.0,60.0,-100.00,West,265,3.0,6.0,57,-99.99,,,0.07,576.000000,,2013-06-17 22:54:00,
2013-06-17 19:02:00,76.0,60.0,-100.00,West,265,3.0,6.0,57,-99.99,,,0.07,576.000000,,2013-06-17 23:02:00,
2013-06-17 20:33:00,72.0,64.0,-100.00,South,169,0.0,2.0,77,0.00,,,0.07,161.000000,,2013-06-18 00:33:00,
2013-06-17 21:44:00,62.0,60.0,-100.00,ENE,69,0.0,2.0,94,0.00,,,0.07,13.000000,,2013-06-18 01:44:00,
2013-06-17 21:53:00,62.0,60.0,-100.00,ENE,69,0.0,2.0,94,0.00,,,0.07,13.000000,,2013-06-18 01:53:00,
2013-06-17 22:02:00,62.0,60.0,-100.00,ENE,69,0.0,2.0,94,0.00,,,0.07,13.000000,,2013-06-18 02:02:00,
2013-06-17 23:34:00,59.0,58.0,-100.00,ENE,72,0.0,0.0,96,0.00,,,0.07,0.000000,,2013-06-18 03:34:00,
2013-06-17 23:43:00,59.0,58.0,-100.00,ENE,72,0.0,0.0,96,0.00,,,0.07,0.000000,,2013-06-18 03:43:00,
2013-06-17 23:53:00,59.0,58.0,-100.00,ENE,72,0.0,0.0,96,0.00,,,0.07,0.000000,,2013-06-18 03:53:00,